DECAYED

STARLINK-4401, 53483 (Decayed)

Orbit data source: Space-Track

STARLINK-4401, 53483 was a payload satellite owned by SpaceX/Seattle (US) in LEO that was launched on Fri, 12 Aug 2022 UTC via an FALCON 9 launch vehicle from the Air Force Western Test Range (AFWTR). Payload-class satellites include a variety of spacecraft equipped with specific instruments for various scientific and technological missions. These include communications satellites like Starlink; space stations such as the ISS; scientific satellites like the Hubble; Earth observation satellites from companies like Planet Labs, Umbra, and HawkEye 360; GPS; miniature CubeSats for education and research; and military/defense satellites.

Not visible in the next 10 days
Identifier
53483, 2022-099U
Orbit
Decayed
Country
Flag of USUS
Related business
Manufacturer
SpaceX/Seattle
Mission
Decayed Commercial Communications
Bus & Motor
STARLINK, Unknown motor
Mass
300 kg wet, ~275 kg dry
Launch date (UTC)
2022-08-12 (3 years ago)
Launch vehicle
FALCON 9
Launch site
Air Force Western Test Range (AFWTR)
Object type
Payload
Rocket body
Debris
Shape & HBR
Box + 1 Pan, 10.1 m
Radar Cross Section
13.562 m², Large (>1 m²)

Expand to show TLE details & history
Last TLE update: 2 weeks ago

TLE from 2 weeks ago
0 STARLINK-4401
1 53483U 22099U   25279.89270591  .09013373  27196-5  16399-3 0  9998
2 53483  97.6324  51.3890 0010034 281.0382  78.9791 16.47053539173627
Epoch: 2025-10-06T21:25Z
TLE epoch observation values (Epoch: 2025-10-06T21:25:29.790Z)
Latitude
-0.0001°
Longitude
74.22546°
Altitude
149.114 km
Speed
7.817 km/s
True Right ascension
03h 25m 33s
True Declination
0° 00' 00"
Sunlit
Object was in full shadow at epoch
Visualization orbit readout
Latitude
Unknown
Longitude
Unknown
Altitude
Unknown
Speed
Unknown
Apparent Right ascension
Unknown
Apparent Declination
Unknown
Sunlit
N/A
Visualization observer readout
Local Sidereal Time
11:41:34
Azimuth
Unknown
Elevation
Unknown
Doppler factor
Unknown
Orbital elements
Apogee altitude
150.459 km
Perigee altitude
137.371 km
Semi-major axis
6,522.052 km
Eccentricity
0.001
Inclination
97.6324°
RAAN
51.389°
Arg. of periapsis
281.0382°
True anomaly
79.09199°
Mean anomaly
78.9791°
Eccentric anomaly
79.03554°
Mean motion
4.12066 °/min
Orbital period
87.36 mins
BSTAR
0.00016399
Loading maneuver chart data...
Computing Atmospheric mass density...
Loading historical data...
Loading historical data...
Loading historical data...
Loading historical data...
Loading historical data...
Loading historical data...
Loading historical data...

Documentation

Showing up to 5 results
|